Dewpoint
64 70 73 72 72 71 71 70 71 71 71 71 71 70 69 68 68 68 65 65 65 64 65 66 69 69 69 69 68 68 69 69 68 68 69 68 66 66 68 68 67 65 67
65 69 73 73 72 72 71 71 71 71 71 71 70 69 68 68 68 67 66 65 66 64 64 66 67 68 68 68 68 68 67 69 69 69 69 68 67 64 66 68 68 67 67
69 70 71 73 73 72 71 71 71 71 70 69 69 69 68 68 68 68 66 66 66 66 68 71 69 69 68 68 68 68 67 67 68 68 69 66 65 65 63 64 66 66 66
67 70 72 73 72 72 71 71 71 71 71 70 69 69 68 68 69 69 68 66 67 68 69 69 69 69 69 68 66 66 66 67 67 68 67 67 66 68 66 64 64 64 66
64 67 70 71 71 71 71 71 72 72 71 71 71 71 70 70 70 70 69 69 68 68 70 70 70 69 69 68 68 66 65 67 69 68 65 64 63 65 68 66 64 64 65
53 60 66 67 66 65 65 66 66 67 67 68 69 71 71 71 71 71 71 71 71 70 69 69 70 71 70 69 68 68 68 68 68 64 64 63 62 67 69 68 65 64 65
45 49 58 61 60 59 58 58 58 58 58 58 59 62 65 67 69 69 70 71 71 71 71 70 70 70 71 71 70 69 68 69 68 65 64 64 64 67 70 68 67 66 65
45 46 47 55 57 57 59 59 59 59 57 59 59 59 59 60 60 60 62 64 67 70 70 71 71 70 70 70 71 70 69 68 67 66 65 64 64 67 68 69 68 66 65
47 46 46 47 49 53 56 57 57 57 57 57 57 56 57 56 57 58 58 59 61 64 69 71 70 70 70 70 70 70 69 68 66 66 66 65 65 67 67 68 69 67 65
46 46 45 46 46 46 47 55 56 56 55 55 55 55 54 53 54 55 56 57 58 59 61 64 67 70 70 70 69 69 69 68 66 65 66 65 67 68 67 68 68 69 68
47 46 46 46 46 46 48 50 51 53 53 53 51 53 49 47 48 50 53 56 56 57 57 58 59 63 68 68 69 68 67 67 66 65 65 66 67 67 66 67 68 69 69
44 46 46 46 47 47 48 48 48 48 48 47 47 48 47 47 49 50 51 53 54 54 54 56 56 57 60 65 67 67 67 67 66 66 66 67 68 69 68 67 68 69 70
45 45 46 46 47 48 48 49 48 48 48 48 48 48 48 47 48 48 49 49 49 50 49 51 51 53 54 59 64 65 66 66 67 67 66 67 68 69 69 69 68 69 70
43 44 45 45 47 48 49 49 48 48 48 48 48 48 48 48 49 49 49 49 49 49 48 49 51 51 52 54 58 62 64 65 66 67 66 66 67 68 69 68 68 68 69
42 44 44 46 47 48 48 49 49 49 49 49 49 50 50 51 51 51 51 50 50 50 49 48 49 50 51 52 53 56 60 63 63 65 65 64 65 66 67 67 68 67 68
42 43 45 47 47 48 48 48 49 50 50 50 51 51 52 51 51 52 52 52 52 53 52 50 50 50 51 51 51 51 53 57 60 62 64 65 65 66 66 67 66 67 68
41 43 45 47 47 48 48 49 50 51 50 50 51 50 50 51 50 50 51 51 50 52 53 53 53 52 51 51 50 51 51 53 57 58 60 61 63 63 65 66 65 65 65
41 43 47 47 47 47 48 49 50 50 50 49 49 49 50 50 50 49 49 49 50 51 51 51 51 52 52 51 51 51 50 51 51 52 56 57 59 60 62 63 64 64 64
41 44 45 46 46 47 47 48 48 48 49 48 48 48 48 48 49 48 48 48 49 49 50 49 49 50 51 49 48 52 51 51 51 51 51 51 54 57 56 60 61 61 63
41 43 45 46 46 46 47 47 48 48 48 48 47 47 47 47 46 47 46 47 48 47 46 46 46 47 49 48 48 50 48 51 51 51 50 50 51 53 53 56 56 57 57
41 42 44 44 45 46 46 45 45 45 46 47 47 47 46 46 46 45 45 46 45 45 44 44 45 45 46 46 47 46 49 50 49 50 50 48 48 50 53 55 53 53 51
40 41 43 43 45 46 46 46 46 46 46 47 47 46 46 46 46 44 44 45 44 44 44 43 43 43 44 46 46 46 44 47 46 49 47 46 45 49 52 51 50 49 50
40 40 42 44 45 46 45 46 46 45 45 44 45 45 46 46 45 44 42 42 44 44 44 44 44 43 45 45 48 48 43 43 44 46 46 45 46 48 50 48 46 44 46
40 40 42 43 44 45 45 44 43 43 42 43 44 44 42 44 42 42 42 41 41 42 41 44 46 47 48 46 47 46 48 47 44 42 44 44 46 47 46 45 43 41 42
40 40 41 43 44 44 44 44 43 42 43 43 42 40 39 41 41 41 41 40 39 40 39 40 42 42 46 46 46 45 44 46 46 44 41 42 44 45 44 41 40 39 40
41 41 42 42 43 44 44 44 43 42 41 41 40 38 38 39 40 39 39 38 39 38 38 39 41 40 42 43 42 42 43 43 42 42 41 40 39 41 44 41 38 36 37
Lifted_Index
-0 -1 -2 -2 -2 -2 -2 -2 -2 -2 -2 -2 -2 -2 -1 -1 -0 0 1 1 2 2 2 1 -0 -1 -1 -1 -0 0 0 0 0 1 1 2 2 2 2 1 2 2 2
-0 -1 -2 -2 -2 -2 -2 -2 -2 -2 -2 -2 -2 -1 -1 -1 -1 -0 1 1 1 1 1 0 -0 -1 -1 -0 -0 0 0 0 0 1 1 2 3 3 2 2 2 2 2
-1 -1 -2 -3 -3 -3 -2 -2 -3 -3 -2 -2 -2 -1 -1 -1 -1 -1 0 1 1 0 -0 -1 -1 -1 -0 0 0 1 1 1 1 1 1 2 2 2 2 3 3 2 2
-1 -2 -2 -2 -3 -3 -3 -3 -3 -3 -3 -2 -2 -2 -1 -1 -1 -1 -1 0 0 -0 -1 -1 -1 -1 -0 0 1 1 1 1 1 1 2 2 2 2 2 3 3 3 3
-1 -1 -2 -2 -2 -2 -2 -2 -2 -2 -2 -2 -2 -2 -2 -2 -2 -2 -1 -1 -0 -0 -1 -1 -1 -1 -1 -0 1 1 1 1 1 2 2 3 3 2 2 2 3 3 3
-1 -1 -1 -1 -1 -1 -1 -1 -1 -1 -1 -1 -1 -1 -2 -1 -1 -1 -1 -1 -1 -1 -1 -1 -1 -1 -1 -1 -0 0 1 1 1 2 3 3 3 2 1 1 2 3 3
-0 -0 -0 -0 -0 0 0 1 1 1 1 1 1 0 0 0 -0 -0 -0 -1 -1 -1 -1 -1 -1 -1 -1 -1 -1 -0 0 0 1 1 2 3 3 2 0 0 1 2 2
1 1 1 2 2 3 4 4 4 4 4 4 3 3 3 3 2 2 2 1 0 -0 -1 -1 -1 -1 -1 -1 -1 -1 -0 0 1 1 2 2 2 1 0 -0 0 1 2
3 4 5 6 7 8 8 8 8 8 8 7 7 7 7 7 6 5 4 3 2 1 -0 -1 -1 -1 -1 -1 -1 -1 -1 0 1 1 2 2 2 1 0 -0 -0 0 1
6 8 10 11 12 12 12 11 11 10 11 11 11 11 11 11 10 9 8 6 5 3 2 1 0 -0 -1 -1 -1 -1 -1 -0 0 1 1 2 2 1 1 0 -0 -1 -0
9 10 12 13 13 13 13 13 12 12 12 12 12 12 13 13 12 12 11 10 9 7 5 4 3 1 1 -0 -1 -1 -1 -1 -0 -0 0 1 1 1 1 0 -0 -1 -1
11 12 13 13 13 13 13 13 13 13 13 13 13 12 12 12 12 12 12 12 11 10 9 8 6 5 3 2 1 0 -0 -1 -1 -0 -0 0 0 -0 -0 -0 -1 -1 -2
11 12 13 13 13 13 13 13 13 13 12 12 12 12 12 12 12 12 12 12 12 12 11 11 9 8 6 5 3 2 1 0 -0 -0 -0 -0 -0 -1 -1 -1 -1 -1 -2
11 12 13 13 13 13 13 13 12 12 12 12 12 12 11 11 11 11 11 11 11 11 11 11 11 10 9 7 6 5 3 2 1 0 0 0 0 -0 -0 -1 -1 -1 -2
12 12 13 13 13 13 13 12 12 12 11 11 11 11 11 11 11 11 11 11 11 10 10 11 11 10 10 9 8 7 6 4 2 1 1 0 0 0 0 -0 -1 -1 -1
12 13 13 13 13 13 13 12 12 11 11 11 11 11 11 11 11 11 11 11 11 10 10 10 10 10 9 9 9 8 8 6 5 3 2 1 1 1 1 0 -0 -1 -1
13 13 13 13 13 13 13 12 12 11 11 11 11 11 12 12 11 11 11 11 11 11 10 9 9 9 9 8 8 8 8 8 7 6 5 4 3 2 2 1 0 -0 -0
12 13 13 13 13 13 13 12 12 12 12 12 12 12 12 12 12 11 11 11 11 11 10 10 9 9 8 8 8 8 8 8 8 8 7 6 6 5 4 2 1 1 0
12 12 13 13 13 13 13 12 13 12 12 12 13 13 13 12 12 12 12 12 12 11 11 10 10 9 9 8 8 8 8 8 8 8 8 7 7 6 5 4 3 2 2
12 12 13 13 13 13 13 13 13 13 13 13 13 13 13 13 13 13 13 12 12 12 12 11 11 11 10 10 9 9 9 8 8 7 7 7 6 6 5 5 4 4 4
12 12 12 13 13 13 13 13 13 12 12 12 13 13 13 14 14 14 14 14 14 13 13 13 12 12 11 11 11 10 9 8 7 7 6 6 5 5 5 5 5 5 5
12 12 12 12 12 12 13 13 12 12 12 12 13 13 13 14 14 15 15 15 15 15 15 14 14 13 13 12 12 11 10 9 8 8 7 6 6 6 6 7 7 7 7
12 12 11 11 12 12 13 12 12 12 12 12 12 13 13 14 14 16 16 16 16 16 15 15 14 14 13 13 12 12 11 10 10 9 9 9 9 8 9 9 9 9 9
11 11 11 11 12 12 12 12 11 11 11 12 12 13 14 14 15 16 17 17 17 16 16 16 15 15 14 14 13 13 13 12 11 10 10 10 10 10 11 11 11 10 10
11 11 11 11 11 12 12 12 11 11 11 12 12 13 14 15 16 16 17 17 17 17 17 17 16 16 15 15 14 14 14 13 13 12 11 11 11 12 12 12 11 11 11
10 11 11 11 11 12 12 11 11 11 12 12 12 13 14 15 16 16 17 17 17 17 17 18 17 16 16 15 15 15 15 14 13 13 12 11 12 12 12 12 12 12 12